Flag for Slovakia Weather past 2 weeks in Prievidza, Slovakia

Now
88 °F

Partly sunny.


Feels Like: 89 °F
Forecast: 58 / 92 °F
Wind: 2 mph from South

Location: Prievidza

Current Time: Aug 28, 2015 at 3:54:58 PM

Latest Report: Aug 28, 2015 at 3:00 PM


Visibility: 19 mi

Pressure: 30.01 "Hg

Humidity: 43%

Dew point: 63 °F

Location of PrievidzaLocation

Historic Weather in Prievidza — Graph

°F

Prievidza temperature yesterday

Maximum temperature yesterday: 84 °F (at 3:00 PM)
Minimum temperature yesterday: 52 °F (at 4:00 AM)
Average temperature yesterday: 71 °F

Past Weeks' High & Low Weather Summary

 TemperatureHumidityPressure
High97 °F (Aug 13, 4:00 PM)97% (Aug 18, 4:00 AM)30.23 "Hg (Aug 18, 4:00 AM)
Low50 °F (Aug 26, 6:00 AM)20% (Aug 13, 4:00 PM)29.69 "Hg (Aug 15, 2:00 PM)
Average70 °F68%29.96 "Hg
* Reported Aug 13 3:00 PM — Aug 28 3:00 PM, Prievidza, Weather by CustomWeather, © 2015

Note: Actual official high and low records may vary slightly from our data, if they occured in-between our weather recording intervals... More about our weather records

Advertising

Prievidza weather history for previous 24 hours

 ConditionsComfort  
Time TempWeatherWind HumidityBarometerVisibility
3:00 PM
Fri, Aug 28
88 °FPartly sunny.2 mph43%30.01 "Hg19 mi
2:00 PM87 °FPartly sunny.2 mph42%30.02 "Hg19 mi
1:00 PM86 °FPartly sunny.3 mph48%30.02 "Hg19 mi
12:00 PM84 °FScattered clouds.3 mph50%30.02 "Hg19 mi
11:00 AM82 °FScattered clouds.N/A50%30.01 "Hg16 mi
10:00 AM80 °FScattered clouds.No wind56%30.01 "Hg19 mi
9:00 AM75 °FPartly sunny.3 mph69%30.01 "Hg16 mi
8:00 AM69 °FScattered clouds.No wind83%30.02 "Hg16 mi
7:00 AM65 °FFog.2 mph89%30.01 "Hg4 mi
5:00 AM62 °FFog.N/A94%30.02 "Hg3 mi
4:00 AM63 °FFog.2 mph92%30.01 "Hg4 mi
3:00 AM64 °FFog.N/A90%30.01 "Hg4 mi
2:00 AM64 °FFog.N/A91%30.01 "Hg3 mi
1:00 AM63 °FFog.N/A90%30.01 "Hg3 mi
11:00 PM
Thu, Aug 27
67 °FFog.N/A83%30.01 "Hg4 mi
10:00 PM68 °FPassing clouds.2 mph81%30.01 "Hg7 mi
9:00 PM70 °FMild.N/A77%30.02 "HgN/A
8:00 PM73 °FPassing clouds.No wind71%30.01 "Hg9 mi
7:00 PM78 °FPartly sunny.2 mph63%30.00 "Hg11 mi
6:00 PM80 °FScattered clouds.3 mph56%29.98 "Hg12 mi
5:00 PM83 °FScattered clouds.3 mph51%29.98 "Hg16 mi
4:00 PM83 °FScattered clouds.6 mph50%29.99 "Hg19 mi
3:00 PM84 °FScattered clouds.5 mph48%30.00 "Hg22 mi
Weather by CustomWeather, © 2015

See weather overviewHow to use our weather pages